Zurück zum Katalog

STARLINK-3758

AktivKommunikationVLEO
NORAD 52297·PAYLOAD·🇺🇸 United States

Gestartet Apr 21, 2022 von Cape Canaveral Space Force Station

Loading…

Nächste Überflüge (nächste 24 Stunden)

TLE

AktuellSource: CelesTrak SupGP

Epoche: Sep 14, 2026, 21:22 UTC

1 52297C 22041AN  26257.89076389 -.00017191  00000+0 -52173-3 0  2574
2 52297  53.1586 318.0896 0001213  79.0035 314.4789 15.33552211    16

Verfolge STARLINK-3758 in Echtzeit mit AllMySat

Download on the App Store